2002-01-01 01:00:00,55.8,73.0
2002-01-01 02:00:00,62.5,76.2
2002-01-01 03:00:00,57.7,72.8
2002-01-01 04:00:00,63.5,78.4
2002-01-01 05:00:00,58.7,72.3
2002-01-01 06:00:00,33.4,45.5
2002-01-01 07:00:00,16.9,31.8
2002-01-01 08:00:00,15.6,30.8
2002-01-01 09:00:00,15.2,30.8
2002-01-01 10:00:00,19.3,35.0
2002-01-01 11:00:00,25.3,41.6
2002-01-01 12:00:00,30.1,46.8
2002-01-01 13:00:00,34.9,51.7
2002-01-01 14:00:00,43.9,61.2
2002-01-01 15:00:00,50.7,66.4
2002-01-01 16:00:00,50.2,66.4
2002-01-01 17:00:00,49.7,66.8
2002-01-01 18:00:00,50.9,67.8
2002-01-01 19:00:00,53.8,69.9
2002-01-01 20:00:00,52.5,68.4
2002-01-01 21:00:00,46.3,62.3
2002-01-01 22:00:00,41.5,58.5
2002-01-01 23:00:00,33.9,50.0
2002-01-02 00:00:00,30.3,46.3
2002-01-02 01:00:00,32.8,50.0
2002-01-02 02:00:00,29.3,45.1
2002-01-02 03:00:00,26.2,43.4
2002-01-02 04:00:00,31.8,48.5
2002-01-02 05:00:00,37.4,55.1
2002-01-02 06:00:00,46.5,63.0
2002-01-02 07:00:00,44.6,61.7
2002-01-02 08:00:00,47.6,63.8
2002-01-02 09:00:00,49.0,66.4
2002-01-02 10:00:00,48.1,64.2
2002-01-02 11:00:00,48.0,64.0
2002-01-02 12:00:00,50.3,65.9
2002-01-02 13:00:00,52.8,68.5
2002-01-02 14:00:00,55.4,71.0
2002-01-02 15:00:00,52.1,68.3
2002-01-02 16:00:00,54.0,69.9
2002-01-02 17:00:00,60.9,75.2
2002-01-02 18:00:00,62.7,76.6
2002-01-02 19:00:00,66.3,78.0
2002-01-02 20:00:00,63.7,75.8
2002-01-02 21:00:00,64.4,75.8
2002-01-02 22:00:00,64.9,75.9
2002-01-02 23:00:00,63.9,74.2
2002-01-03 00:00:00,65.2,74.8
2002-01-03 01:00:00,62.6,73.7
2002-01-03 02:00:00,61.3,73.3
2002-01-03 03:00:00,63.0,73.5
2002-01-03 04:00:00,64.7,75.5
2002-01-03 05:00:00,66.1,77.3
2002-01-03 06:00:00,65.4,76.9
2002-01-03 07:00:00,66.5,77.8
2002-01-03 08:00:00,66.2,78.0
2002-01-03 09:00:00,66.0,78.1
2002-01-03 10:00:00,66.0,78.2
2002-01-03 11:00:00,66.1,78.4
2002-01-03 12:00:00,67.8,79.3
2002-01-03 13:00:00,66.0,78.2
2002-01-03 14:00:00,66.4,79.2
2002-01-03 15:00:00,65.7,79.5
2002-01-03 16:00:00,66.7,80.9
2002-01-03 17:00:00,65.9,80.6
2002-01-03 18:00:00,64.8,80.0
2002-01-03 19:00:00,62.9,78.3
2002-01-03 20:00:00,62.5,77.6
2002-01-03 21:00:00,63.9,79.5
2002-01-03 22:00:00,64.6,80.2
2002-01-03 23:00:00,68.5,81.6
2002-01-04 00:00:00,67.5,80.3
2002-01-04 01:00:00,68.6,81.5
2002-01-04 02:00:00,69.9,81.5
2002-01-04 03:00:00,67.9,80.0
2002-01-04 04:00:00,67.3,79.1
2002-01-04 05:00:00,67.0,79.3
2002-01-04 06:00:00,67.8,76.9
2002-01-04 07:00:00,71.1,79.0
2002-01-04 08:00:00,70.4,79.0
2002-01-04 09:00:00,84.0,77.7
2002-01-04 10:00:00,80.2,67.9
2002-01-04 11:00:00,69.7,65.4
2002-01-04 12:00:00,53.3,60.5
2002-01-04 13:00:00,35.3,49.7
2002-01-04 14:00:00,30.9,46.1
2002-01-04 15:00:00,27.9,42.8
2002-01-04 16:00:00,32.1,48.1
2002-01-04 17:00:00,34.6,50.6
2002-01-04 18:00:00,30.1,45.8
2002-01-04 19:00:00,19.6,35.1
2002-01-04 20:00:00,21.5,39.0
2002-01-04 21:00:00,41.5,59.9
2002-01-04 22:00:00,65.0,76.7
2002-01-04 23:00:00,64.3,76.9
2002-01-05 00:00:00,66.2,77.5
2002-01-05 01:00:00,64.1,76.4
2002-01-05 02:00:00,64.5,77.0
2002-01-05 03:00:00,64.4,77.0
2002-01-05 04:00:00,66.1,78.3
2002-01-05 05:00:00,67.3,79.3
2002-01-05 06:00:00,66.9,78.8
2002-01-05 07:00:00,64.8,77.1
2002-01-05 08:00:00,66.3,78.8
2002-01-05 09:00:00,67.3,79.8
2002-01-05 10:00:00,65.1,77.4
2002-01-05 11:00:00,65.4,77.7
2002-01-05 12:00:00,65.4,77.6
2002-01-05 13:00:00,63.7,76.3
2002-01-05 14:00:00,63.4,76.1
2002-01-05 15:00:00,64.6,77.5
2002-01-05 16:00:00,65.1,77.6
2002-01-05 17:00:00,66.2,78.7
2002-01-05 18:00:00,66.8,79.0
2002-01-05 19:00:00,64.9,77.2
2002-01-05 20:00:00,64.1,76.9
2002-01-05 21:00:00,65.2,77.6
2002-01-05 22:00:00,65.0,77.2
2002-01-05 23:00:00,64.3,76.7
2002-01-06 00:00:00,64.4,76.3
2002-01-06 01:00:00,70.4,81.8
2002-01-06 02:00:00,89.0,97.2
2002-01-06 03:00:00,91.3,97.1
2002-01-06 04:00:00,90.7,95.6
2002-01-06 05:00:00,89.4,95.1
2002-01-06 06:00:00,88.4,94.4
2002-01-06 07:00:00,88.3,94.4
2002-01-06 08:00:00,89.0,94.6
2002-01-06 09:00:00,87.9,90.0
2002-01-06 10:00:00,74.8,76.2
2002-01-06 11:00:00,69.3,76.6
2002-01-06 12:00:00,68.3,76.2
2002-01-06 13:00:00,67.1,76.5
2002-01-06 14:00:00,75.2,82.1
2002-01-06 15:00:00,63.6,73.6
2002-01-06 16:00:00,63.6,74.0
2002-01-06 17:00:00,62.8,73.7
2002-01-06 18:00:00,64.8,76.0
2002-01-06 19:00:00,64.4,76.1
2002-01-06 20:00:00,64.5,76.2
2002-01-06 21:00:00,66.6,78.0
2002-01-06 22:00:00,48.1,61.6
2002-01-06 23:00:00,44.5,58.6
2002-01-07 00:00:00,49.1,63.6
2002-01-07 01:00:00,53.8,68.5
2002-01-07 02:00:00,65.5,77.2
2002-01-07 03:00:00,66.0,78.0
2002-01-07 04:00:00,67.6,79.2
2002-01-07 05:00:00,69.7,78.7
2002-01-07 06:00:00,72.7,81.0
2002-01-07 07:00:00,73.0,81.1
2002-01-07 08:00:00,70.4,79.2
2002-01-07 09:00:00,70.2,78.8
2002-01-07 10:00:00,67.2,77.4
2002-01-07 11:00:00,80.4,77.8
2002-01-07 12:00:00,89.5,75.4
2002-01-07 13:00:00,88.9,74.1
2002-01-07 14:00:00,89.5,77.6
2002-01-07 15:00:00,85.3,74.8
2002-01-07 16:00:00,81.3,76.4
2002-01-07 17:00:00,73.7,76.7
2002-01-07 18:00:00,73.6,78.8
2002-01-07 19:00:00,73.1,78.6
2002-01-07 20:00:00,74.1,79.2
2002-01-07 21:00:00,76.6,79.0
2002-01-07 22:00:00,71.9,76.4
2002-01-07 23:00:00,66.2,72.9
2002-01-08 00:00:00,57.3,65.8
2002-01-08 01:00:00,51.4,61.4
2002-01-08 02:00:00,54.7,65.6
2002-01-08 03:00:00,60.4,71.1
2002-01-08 04:00:00,64.2,74.3
2002-01-08 05:00:00,62.1,73.6
2002-01-08 06:00:00,69.2,79.5
2002-01-08 07:00:00,72.3,81.4
2002-01-08 08:00:00,68.1,78.5
2002-01-08 09:00:00,68.9,79.1
2002-01-08 10:00:00,70.7,81.1
2002-01-08 11:00:00,67.7,78.4
2002-01-08 12:00:00,63.6,75.0
2002-01-08 13:00:00,59.4,72.3
2002-01-08 14:00:00,66.5,78.2
2002-01-08 15:00:00,73.5,83.3
2002-01-08 16:00:00,73.9,83.2
2002-01-08 17:00:00,66.9,78.4
2002-01-08 18:00:00,66.7,77.6
2002-01-08 19:00:00,66.5,78.0
2002-01-08 20:00:00,68.5,79.8
2002-01-08 21:00:00,71.5,81.7
2002-01-08 22:00:00,66.6,78.0
2002-01-08 23:00:00,71.4,81.8
2002-01-09 00:00:00,67.5,78.2
2002-01-09 01:00:00,65.4,76.5
2002-01-09 02:00:00,70.5,81.0
2002-01-09 03:00:00,63.0,74.6
2002-01-09 04:00:00,65.8,76.7
2002-01-09 05:00:00,64.4,75.3
2002-01-09 06:00:00,62.0,73.5
2002-01-09 07:00:00,69.5,79.9
2002-01-09 08:00:00,67.2,77.7
2002-01-09 09:00:00,63.6,74.6
2002-01-09 10:00:00,65.5,76.8
2002-01-09 11:00:00,67.5,78.1
2002-01-09 12:00:00,68.0,79.4
2002-01-09 13:00:00,65.1,76.5
2002-01-09 14:00:00,65.0,76.9
2002-01-09 15:00:00,65.4,76.4
2002-01-09 16:00:00,69.6,76.6
2002-01-09 17:00:00,70.4,78.1
2002-01-09 18:00:00,70.3,79.3
2002-01-09 19:00:00,71.3,79.8
2002-01-09 20:00:00,66.8,76.6
2002-01-09 21:00:00,65.7,76.1
2002-01-09 22:00:00,65.1,75.9
2002-01-09 23:00:00,70.6,80.1
2002-01-10 00:00:00,68.2,78.4
2002-01-10 01:00:00,67.7,78.4
2002-01-10 02:00:00,70.1,80.2
2002-01-10 03:00:00,71.5,80.8
2002-01-10 04:00:00,71.3,80.1
2002-01-10 05:00:00,73.7,82.0
2002-01-10 06:00:00,73.8,82.3
2002-01-10 07:00:00,75.3,83.1
2002-01-10 08:00:00,75.3,83.8
2002-01-10 09:00:00,76.7,83.7
2002-01-10 10:00:00,79.7,84.6
2002-01-10 11:00:00,83.9,85.2
2002-01-10 12:00:00,85.9,85.2
2002-01-10 13:00:00,87.1,85.1
2002-01-10 14:00:00,90.7,85.3
2002-01-10 15:00:00,93.9,85.6
2002-01-10 16:00:00,95.3,85.5
2002-01-10 17:00:00,96.3,84.5
2002-01-10 18:00:00,97.0,85.0
2002-01-10 19:00:00,97.1,86.7
2002-01-10 20:00:00,97.2,87.5
2002-01-10 21:00:00,97.4,86.4
2002-01-10 22:00:00,97.5,87.7
2002-01-10 23:00:00,97.5,87.5
2002-01-11 00:00:00,97.6,88.0
2002-01-11 01:00:00,97.7,86.1
2002-01-11 02:00:00,98.0,84.3
2002-01-11 03:00:00,98.9,83.2
2002-01-11 04:00:00,99.2,82.1
2002-01-11 05:00:00,99.6,79.3
2002-01-11 06:00:00,99.0,77.8
2002-01-11 07:00:00,98.0,77.3
2002-01-11 08:00:00,97.8,75.2
2002-01-11 09:00:00,97.8,72.5
2002-01-11 10:00:00,98.8,73.2
2002-01-11 11:00:00,99.4,74.7
2002-01-11 12:00:00,99.9,75.2
2002-01-11 13:00:00,100.4,77.5
2002-01-11 14:00:00,100.6,78.1
2002-01-11 15:00:00,100.6,77.7
2002-01-11 16:00:00,99.7,81.9
2002-01-11 17:00:00,98.0,80.4
2002-01-11 18:00:00,100.4,78.8
2002-01-11 19:00:00,101.0,78.6
2002-01-11 20:00:00,101.2,78.1
2002-01-11 21:00:00,101.4,77.9
2002-01-11 22:00:00,101.2,76.3
2002-01-11 23:00:00,101.0,74.1
2002-01-12 00:00:00,100.6,71.9
2002-01-12 01:00:00,100.4,68.0
2002-01-12 02:00:00,100.1,84.1
2002-01-12 03:00:00,99.9,71.0
2002-01-12 04:00:00,99.2,64.4
2002-01-12 05:00:00,97.0,63.0
2002-01-12 06:00:00,95.3,62.6
2002-01-12 07:00:00,94.2,56.6
2002-01-12 08:00:00,93.0,65.9
2002-01-12 09:00:00,92.5,66.9
2002-01-12 10:00:00,92.0,66.8
2002-01-12 11:00:00,92.1,68.1
2002-01-12 12:00:00,91.2,71.3
2002-01-12 13:00:00,91.7,70.5
2002-01-12 14:00:00,90.5,65.1
2002-01-12 15:00:00,89.4,61.2
2002-01-12 16:00:00,87.7,55.6
2002-01-12 17:00:00,87.7,46.9
2002-01-12 18:00:00,87.7,41.4
2002-01-12 19:00:00,86.6,46.6
2002-01-12 20:00:00,85.7,54.8
2002-01-12 21:00:00,84.7,56.3
2002-01-12 22:00:00,93.0,50.9
2002-01-12 23:00:00,93.9,61.5
2002-01-13 00:00:00,92.6,77.5
2002-01-13 01:00:00,93.4,80.2
2002-01-13 02:00:00,93.7,78.1
2002-01-13 03:00:00,92.8,79.0
2002-01-13 04:00:00,93.0,76.9
2002-01-13 05:00:00,92.2,90.5
2002-01-13 06:00:00,97.7,78.5
2002-01-13 07:00:00,99.0,77.1
2002-01-13 08:00:00,99.8,78.1
2002-01-13 09:00:00,100.0,76.9
2002-01-13 10:00:00,100.2,77.5
2002-01-13 11:00:00,100.9,78.4
2002-01-13 12:00:00,101.3,80.8
2002-01-13 13:00:00,102.1,83.3
2002-01-13 14:00:00,103.5,122.1
2002-01-13 15:00:00,104.7,155.0
2002-01-13 16:00:00,105.4,151.6
2002-01-13 17:00:00,105.9,169.4
2002-01-13 18:00:00,106.3,198.6
2002-01-13 19:00:00,106.3,234.1
2002-01-13 20:00:00,104.0,253.0
2002-01-13 21:00:00,101.0,NaN
2002-01-13 22:00:00,94.5,NaN
2002-01-13 23:00:00,89.5,NaN
2002-01-14 00:00:00,84.2,NaN
2002-01-14 01:00:00,79.0,NaN
2002-01-14 02:00:00,79.8,NaN
2002-01-14 03:00:00,83.2,NaN
2002-01-14 04:00:00,77.4,NaN
2002-01-14 05:00:00,69.7,NaN
2002-01-14 06:00:00,67.0,NaN
2002-01-14 07:00:00,72.4,NaN
2002-01-14 08:00:00,76.4,198.6
2002-01-14 09:00:00,72.0,NaN
2002-01-14 10:00:00,71.6,NaN
2002-01-14 11:00:00,71.9,NaN
2002-01-14 12:00:00,67.9,NaN
2002-01-14 13:00:00,67.7,NaN
2002-01-14 14:00:00,96.3,232.5
2002-01-14 15:00:00,82.8,239.9
2002-01-14 16:00:00,86.7,NaN
2002-01-14 17:00:00,90.8,NaN
2002-01-14 18:00:00,89.3,NaN
2002-01-14 19:00:00,89.0,NaN
2002-01-14 20:00:00,88.9,NaN
2002-01-14 21:00:00,88.7,272.0
2002-01-14 22:00:00,88.4,257.8
2002-01-14 23:00:00,88.2,243.1
2002-01-15 00:00:00,88.0,230.4
2002-01-15 01:00:00,88.1,221.6
2002-01-15 02:00:00,88.1,212.1
2002-01-15 03:00:00,88.0,203.0
2002-01-15 04:00:00,87.9,195.3
2002-01-15 05:00:00,87.3,183.8
2002-01-15 06:00:00,87.3,127.0
2002-01-15 07:00:00,87.6,96.7
2002-01-15 08:00:00,87.7,92.7
2002-01-15 09:00:00,87.8,92.2
2002-01-15 10:00:00,87.7,93.4
2002-01-15 11:00:00,87.5,92.1
2002-01-15 12:00:00,87.3,91.9
2002-01-15 13:00:00,87.1,91.8
2002-01-15 14:00:00,87.1,91.9
2002-01-15 15:00:00,87.1,91.9
2002-01-15 16:00:00,87.0,91.9
2002-01-15 17:00:00,86.7,91.7
2002-01-15 18:00:00,86.3,91.5
2002-01-15 19:00:00,86.1,91.4
2002-01-15 20:00:00,86.2,91.7
2002-01-15 21:00:00,91.5,96.4
2002-01-15 22:00:00,69.0,95.9
2002-01-15 23:00:00,65.9,89.3
2002-01-16 00:00:00,65.7,77.4
2002-01-16 01:00:00,62.4,73.8
2002-01-16 02:00:00,65.3,75.9
2002-01-16 03:00:00,64.4,75.0
2002-01-16 04:00:00,61.6,72.7
2002-01-16 05:00:00,57.6,69.5
2002-01-16 06:00:00,56.8,69.7
2002-01-16 07:00:00,63.1,74.4
2002-01-16 08:00:00,52.1,64.3
2002-01-16 09:00:00,47.3,60.5
2002-01-16 10:00:00,50.1,63.3
2002-01-16 11:00:00,48.5,62.1
2002-01-16 12:00:00,52.3,65.9
2002-01-16 13:00:00,55.0,67.7
2002-01-16 14:00:00,55.0,68.3
2002-01-16 15:00:00,45.0,59.0
2002-01-16 16:00:00,38.0,53.3
2002-01-16 17:00:00,32.8,48.5
2002-01-16 18:00:00,32.8,48.6
2002-01-16 19:00:00,33.5,49.4
2002-01-16 20:00:00,29.0,44.0
2002-01-16 21:00:00,27.8,43.2
2002-01-16 22:00:00,28.7,44.5
2002-01-16 23:00:00,33.2,49.9
2002-01-17 00:00:00,36.8,53.2
2002-01-17 01:00:00,40.2,56.8
2002-01-17 02:00:00,48.1,63.2
2002-01-17 03:00:00,54.9,69.2
2002-01-17 04:00:00,53.5,68.1
2002-01-17 05:00:00,52.8,67.4
2002-01-17 06:00:00,51.1,66.2
2002-01-17 07:00:00,48.8,64.6
2002-01-17 08:00:00,47.6,63.8
2002-01-17 09:00:00,47.1,63.1
2002-01-17 10:00:00,42.0,58.3
2002-01-17 11:00:00,40.4,57.2
2002-01-17 12:00:00,45.5,62.1
2002-01-17 13:00:00,47.3,64.0
2002-01-17 14:00:00,50.0,65.8
2002-01-17 15:00:00,54.5,70.0
2002-01-17 16:00:00,64.3,77.2
2002-01-17 17:00:00,59.9,72.9
2002-01-17 18:00:00,53.0,67.3
2002-01-17 19:00:00,52.1,67.5
2002-01-17 20:00:00,37.6,52.9
2002-01-17 21:00:00,33.0,49.6
2002-01-17 22:00:00,33.9,50.4
2002-01-17 23:00:00,33.0,49.8
2002-01-18 00:00:00,32.8,49.1
2002-01-18 01:00:00,29.9,45.5
2002-01-18 02:00:00,23.9,39.0
2002-01-18 03:00:00,22.2,37.7
2002-01-18 04:00:00,21.7,37.0
2002-01-18 05:00:00,23.1,38.8
2002-01-18 06:00:00,24.3,40.4
2002-01-18 07:00:00,22.3,37.8
2002-01-18 08:00:00,23.8,39.3
2002-01-18 09:00:00,23.3,38.8
2002-01-18 10:00:00,21.6,37.0
2002-01-18 11:00:00,24.9,40.9
2002-01-18 12:00:00,31.9,48.3
2002-01-18 13:00:00,34.0,51.7
2002-01-18 14:00:00,38.9,55.9
2002-01-18 15:00:00,47.5,63.9
2002-01-18 16:00:00,44.2,61.1
2002-01-18 17:00:00,49.1,65.3
2002-01-18 18:00:00,47.2,64.2
2002-01-18 19:00:00,55.9,71.3
2002-01-18 20:00:00,72.0,87.5
2002-01-18 21:00:00,79.5,90.8
2002-01-18 22:00:00,79.1,88.2
2002-01-18 23:00:00,79.4,88.6
2002-01-19 00:00:00,79.5,88.3
2002-01-19 01:00:00,79.6,88.6
2002-01-19 02:00:00,79.2,88.3
2002-01-19 03:00:00,79.3,88.3
2002-01-19 04:00:00,78.9,87.9
2002-01-19 05:00:00,78.6,87.7
2002-01-19 06:00:00,77.9,87.3
2002-01-19 07:00:00,77.4,87.1
2002-01-19 08:00:00,76.9,86.6
2002-01-19 09:00:00,76.1,86.0
2002-01-19 10:00:00,75.2,85.5
2002-01-19 11:00:00,74.8,85.1
2002-01-19 12:00:00,74.3,84.6
2002-01-19 13:00:00,73.7,84.2
2002-01-19 14:00:00,73.1,83.8
2002-01-19 15:00:00,72.7,83.6
2002-01-19 16:00:00,72.2,83.3
2002-01-19 17:00:00,71.9,83.4
2002-01-19 18:00:00,71.9,83.1
2002-01-19 19:00:00,71.7,83.1
2002-01-19 20:00:00,71.7,83.2
2002-01-19 21:00:00,72.0,83.5
2002-01-19 22:00:00,72.4,83.7
2002-01-19 23:00:00,72.1,83.0
2002-01-20 00:00:00,71.4,82.7
2002-01-20 01:00:00,71.0,82.3
2002-01-20 02:00:00,69.2,80.1
2002-01-20 03:00:00,66.9,78.9
2002-01-20 04:00:00,65.7,77.9
2002-01-20 05:00:00,65.1,78.3
2002-01-20 06:00:00,64.9,77.8
2002-01-20 07:00:00,64.3,77.8
2002-01-20 08:00:00,65.1,77.4
2002-01-20 09:00:00,64.7,77.6
2002-01-20 10:00:00,63.9,77.4
2002-01-20 11:00:00,63.9,77.7
2002-01-20 12:00:00,66.4,78.1
2002-01-20 13:00:00,67.0,79.9
2002-01-20 14:00:00,68.0,81.2
2002-01-20 15:00:00,70.1,81.7
2002-01-20 16:00:00,67.6,80.6
2002-01-20 17:00:00,61.4,81.5
2002-01-20 18:00:00,43.0,81.2
2002-01-20 19:00:00,23.1,61.0
2002-01-20 20:00:00,17.7,34.4
2002-01-20 21:00:00,16.3,33.0
2002-01-20 22:00:00,20.7,36.1
2002-01-20 23:00:00,24.6,40.2
2002-01-21 00:00:00,23.7,39.1
2002-01-21 01:00:00,24.9,40.3
2002-01-21 02:00:00,26.5,42.0
2002-01-21 03:00:00,25.1,40.2
2002-01-21 04:00:00,25.8,40.8
2002-01-21 05:00:00,29.6,45.6
2002-01-21 06:00:00,29.6,44.7
2002-01-21 07:00:00,26.1,41.7
2002-01-21 08:00:00,21.2,35.4
2002-01-21 09:00:00,18.0,32.1
2002-01-21 10:00:00,15.5,30.3
2002-01-21 11:00:00,13.8,29.6
2002-01-21 12:00:00,15.5,31.1
2002-01-21 13:00:00,20.3,35.4
2002-01-21 14:00:00,26.1,41.8
2002-01-21 15:00:00,28.6,44.2
2002-01-21 16:00:00,28.2,44.0
2002-01-21 17:00:00,29.4,45.0
2002-01-21 18:00:00,24.7,39.9
2002-01-21 19:00:00,21.9,36.9
2002-01-21 20:00:00,22.8,38.2
2002-01-21 21:00:00,35.0,51.7
2002-01-21 22:00:00,46.1,62.4
2002-01-21 23:00:00,56.8,71.2
2002-01-22 00:00:00,59.3,73.2
2002-01-22 01:00:00,58.6,72.7
2002-01-22 02:00:00,60.2,74.0
2002-01-22 03:00:00,60.1,73.7
2002-01-22 04:00:00,60.5,74.4
2002-01-22 05:00:00,63.7,76.7
2002-01-22 06:00:00,61.7,75.4
2002-01-22 07:00:00,58.7,72.3
2002-01-22 08:00:00,49.0,65.3
2002-01-22 09:00:00,49.9,65.2
2002-01-22 10:00:00,45.9,63.2
2002-01-22 11:00:00,48.0,64.3
2002-01-22 12:00:00,50.8,66.9
2002-01-22 13:00:00,53.7,69.5
2002-01-22 14:00:00,55.9,71.8
2002-01-22 15:00:00,59.7,74.3
2002-01-22 16:00:00,62.9,77.9
2002-01-22 17:00:00,75.2,87.6
2002-01-22 18:00:00,73.1,82.9
2002-01-22 19:00:00,70.7,82.6
2002-01-22 20:00:00,71.5,82.0
2002-01-22 21:00:00,71.3,82.6
2002-01-22 22:00:00,72.0,83.0
2002-01-22 23:00:00,70.9,81.4
2002-01-23 00:00:00,71.1,81.8
2002-01-23 01:00:00,72.2,84.6
2002-01-23 02:00:00,72.3,82.6
2002-01-23 03:00:00,71.8,83.3
2002-01-23 04:00:00,73.4,86.5
2002-01-23 05:00:00,73.3,83.5
2002-01-23 06:00:00,72.1,84.4
2002-01-23 07:00:00,71.9,82.7
2002-01-23 08:00:00,71.8,85.6
2002-01-23 09:00:00,72.4,83.3
2002-01-23 10:00:00,71.2,83.0
2002-01-23 11:00:00,69.7,80.9
2002-01-23 12:00:00,69.1,81.0
2002-01-23 13:00:00,64.7,75.7
2002-01-23 14:00:00,58.6,70.3
2002-01-23 15:00:00,51.5,65.0
2002-01-23 16:00:00,51.2,64.8
2002-01-23 17:00:00,55.0,69.2
2002-01-23 18:00:00,61.0,75.2
2002-01-23 19:00:00,58.4,74.4
2002-01-23 20:00:00,61.7,72.6
2002-01-23 21:00:00,54.8,68.1
2002-01-23 22:00:00,56.4,69.9
2002-01-23 23:00:00,56.3,70.3
2002-01-24 00:00:00,57.5,71.0
2002-01-24 01:00:00,58.6,71.8
2002-01-24 02:00:00,58.2,71.7
2002-01-24 03:00:00,57.4,71.4
2002-01-24 04:00:00,58.9,72.4
2002-01-24 05:00:00,54.5,68.6
2002-01-24 06:00:00,40.4,57.3
2002-01-24 07:00:00,63.1,78.3
2002-01-24 08:00:00,56.7,70.5
2002-01-24 09:00:00,52.7,67.0
2002-01-24 10:00:00,44.9,61.4
2002-01-24 11:00:00,46.1,62.8
2002-01-24 12:00:00,46.9,62.0
2002-01-24 13:00:00,50.0,67.8
2002-01-24 14:00:00,52.7,68.1
2002-01-24 15:00:00,55.9,71.3
2002-01-24 16:00:00,59.3,75.5
2002-01-24 17:00:00,66.8,79.3
2002-01-24 18:00:00,67.7,79.7
2002-01-24 19:00:00,63.0,76.3
2002-01-24 20:00:00,67.8,80.6
2002-01-24 21:00:00,70.7,85.4
2002-01-24 22:00:00,71.2,85.3
2002-01-24 23:00:00,71.6,82.5
2002-01-25 00:00:00,70.1,81.6
2002-01-25 01:00:00,69.0,82.0
2002-01-25 02:00:00,70.5,82.1
2002-01-25 03:00:00,71.2,80.1
2002-01-25 04:00:00,70.1,81.3
2002-01-25 05:00:00,69.0,79.5
2002-01-25 06:00:00,68.7,83.7
2002-01-25 07:00:00,67.5,84.0
2002-01-25 08:00:00,66.7,81.0
2002-01-25 09:00:00,68.8,80.7
2002-01-25 10:00:00,66.8,78.9
2002-01-25 11:00:00,67.0,75.8
2002-01-25 12:00:00,59.7,71.6
2002-01-25 13:00:00,48.0,61.2
2002-01-25 14:00:00,40.5,56.2
2002-01-25 15:00:00,41.5,56.3
2002-01-25 16:00:00,37.7,53.2
2002-01-25 17:00:00,35.1,49.8
2002-01-25 18:00:00,28.9,43.6
2002-01-25 19:00:00,26.5,41.0
2002-01-25 20:00:00,28.4,45.9
2002-01-25 21:00:00,44.5,60.0
2002-01-25 22:00:00,46.4,62.2
2002-01-25 23:00:00,42.4,57.6
2002-01-26 00:00:00,32.4,47.1
2002-01-26 01:00:00,21.4,35.1
2002-01-26 02:00:00,21.2,36.0
2002-01-26 03:00:00,24.0,40.9
2002-01-26 04:00:00,32.7,49.1
2002-01-26 05:00:00,50.3,65.7
2002-01-26 06:00:00,56.0,70.8
2002-01-26 07:00:00,51.9,67.8
2002-01-26 08:00:00,51.4,67.5
2002-01-26 09:00:00,50.7,67.3
2002-01-26 10:00:00,48.9,64.9
2002-01-26 11:00:00,45.0,62.0
2002-01-26 12:00:00,45.8,63.5
2002-01-26 13:00:00,48.3,64.6
2002-01-26 14:00:00,60.5,78.6
2002-01-26 15:00:00,64.9,78.5
2002-01-26 16:00:00,67.9,80.0
2002-01-26 17:00:00,68.7,81.2
2002-01-26 18:00:00,70.8,82.5
2002-01-26 19:00:00,67.5,79.6
2002-01-26 20:00:00,69.5,85.0
2002-01-26 21:00:00,72.8,87.5
2002-01-26 22:00:00,73.0,85.4
2002-01-26 23:00:00,73.7,83.5
2002-01-27 00:00:00,73.7,83.0
2002-01-27 01:00:00,68.9,77.6
2002-01-27 02:00:00,63.0,75.0
2002-01-27 03:00:00,58.2,71.2
2002-01-27 04:00:00,55.7,69.1
2002-01-27 05:00:00,54.4,68.7
2002-01-27 06:00:00,55.2,69.3
2002-01-27 07:00:00,54.4,69.5
2002-01-27 08:00:00,48.8,62.9
2002-01-27 09:00:00,47.7,62.7
2002-01-27 10:00:00,49.5,65.2
2002-01-27 11:00:00,50.3,66.2
2002-01-27 12:00:00,51.0,66.5
2002-01-27 13:00:00,52.8,67.8
2002-01-27 14:00:00,54.0,68.9
2002-01-27 15:00:00,53.7,68.4
2002-01-27 16:00:00,58.3,72.9
2002-01-27 17:00:00,64.8,76.9
2002-01-27 18:00:00,65.7,78.7
2002-01-27 19:00:00,65.0,76.2
2002-01-27 20:00:00,62.0,75.4
2002-01-27 21:00:00,62.3,75.3
2002-01-27 22:00:00,59.5,73.7
2002-01-27 23:00:00,59.7,72.9
2002-01-28 00:00:00,53.9,68.1
2002-01-28 01:00:00,50.8,65.0
2002-01-28 02:00:00,50.1,66.0
2002-01-28 03:00:00,47.6,62.7
2002-01-28 04:00:00,45.0,60.9
2002-01-28 05:00:00,42.9,58.5
2002-01-28 06:00:00,42.6,58.6
2002-01-28 07:00:00,40.3,56.3
2002-01-28 08:00:00,41.2,57.1
2002-01-28 09:00:00,41.3,57.7
2002-01-28 10:00:00,42.8,58.8
2002-01-28 11:00:00,41.2,58.3
2002-01-28 12:00:00,42.9,59.1
2002-01-28 13:00:00,41.1,57.4
2002-01-28 14:00:00,43.6,59.8
2002-01-28 15:00:00,43.1,58.8
2002-01-28 16:00:00,37.3,53.4
2002-01-28 17:00:00,40.1,57.2
2002-01-28 18:00:00,54.9,70.5
2002-01-28 19:00:00,67.9,80.4
2002-01-28 20:00:00,70.8,82.9
2002-01-28 21:00:00,71.6,82.6
2002-01-28 22:00:00,70.4,81.7
2002-01-28 23:00:00,66.6,77.7
2002-01-29 00:00:00,62.4,74.9
2002-01-29 01:00:00,59.3,72.2
2002-01-29 02:00:00,61.1,75.0
2002-01-29 03:00:00,65.6,77.6
2002-01-29 04:00:00,61.1,74.3
2002-01-29 05:00:00,57.0,70.6
2002-01-29 06:00:00,57.0,72.5
2002-01-29 07:00:00,59.5,72.9
2002-01-29 08:00:00,58.2,72.3
2002-01-29 09:00:00,56.8,71.4
2002-01-29 10:00:00,60.9,74.3
2002-01-29 11:00:00,56.7,71.6
2002-01-29 12:00:00,57.7,71.5
2002-01-29 13:00:00,52.3,66.8
2002-01-29 14:00:00,41.1,54.5
2002-01-29 15:00:00,22.1,37.2
2002-01-29 16:00:00,40.7,56.8
2002-01-29 17:00:00,46.1,62.2
2002-01-29 18:00:00,54.5,69.5
2002-01-29 19:00:00,54.3,68.8
2002-01-29 20:00:00,54.1,69.0
2002-01-29 21:00:00,50.4,66.0
2002-01-29 22:00:00,49.9,65.4
2002-01-29 23:00:00,49.2,64.9
2002-01-30 00:00:00,46.5,62.6
2002-01-30 01:00:00,43.7,61.0
2002-01-30 02:00:00,47.1,63.2
2002-01-30 03:00:00,51.0,67.2
2002-01-30 04:00:00,53.0,68.7
2002-01-30 05:00:00,52.6,68.3
2002-01-30 06:00:00,49.9,65.7
2002-01-30 07:00:00,48.4,65.1
2002-01-30 08:00:00,50.3,66.4
2002-01-30 09:00:00,50.9,66.6
2002-01-30 10:00:00,47.3,55.5
2002-01-30 11:00:00,48.9,32.6
2002-01-30 12:00:00,44.8,62.7
2002-01-30 13:00:00,44.5,62.1
2002-01-30 14:00:00,35.5,50.9
2002-01-30 15:00:00,26.2,42.7
2002-01-30 16:00:00,33.0,50.3
2002-01-30 17:00:00,38.3,56.4
2002-01-30 18:00:00,43.9,60.7
2002-01-30 19:00:00,44.9,61.6
2002-01-30 20:00:00,47.5,63.9
2002-01-30 21:00:00,48.6,65.5
2002-01-30 22:00:00,49.6,66.5
2002-01-30 23:00:00,51.9,68.0
2002-01-31 00:00:00,53.1,69.3
2002-01-31 01:00:00,53.1,69.1
2002-01-31 02:00:00,53.6,69.4
2002-01-31 03:00:00,53.5,69.8
2002-01-31 04:00:00,54.8,70.6
2002-01-31 05:00:00,55.4,71.4
2002-01-31 06:00:00,56.2,71.9
2002-01-31 07:00:00,56.7,72.1
2002-01-31 08:00:00,55.6,71.0
2002-01-31 09:00:00,55.6,71.2
2002-01-31 10:00:00,51.4,67.8
2002-01-31 11:00:00,46.7,63.8
2002-01-31 12:00:00,46.1,63.4
2002-01-31 13:00:00,43.7,60.9
2002-01-31 14:00:00,45.0,63.7
2002-01-31 15:00:00,46.2,61.6
2002-01-31 16:00:00,43.6,61.3
2002-01-31 17:00:00,46.7,63.3
2002-01-31 18:00:00,47.5,64.4
2002-01-31 19:00:00,48.9,66.0
2002-01-31 20:00:00,49.0,66.2
2002-01-31 21:00:00,48.8,65.4
2002-01-31 22:00:00,46.8,62.7
2002-01-31 23:00:00,32.9,48.2
2002-02-01 00:00:00,25.2,41.3
2002-02-01 01:00:00,32.1,49.1
2002-02-01 02:00:00,34.0,50.7
2002-02-01 03:00:00,35.3,52.5
2002-02-01 04:00:00,43.0,60.0
2002-02-01 05:00:00,49.3,66.2
2002-02-01 06:00:00,50.2,66.6
2002-02-01 07:00:00,51.0,67.4
2002-02-01 08:00:00,54.0,70.3
2002-02-01 09:00:00,56.9,72.4
2002-02-01 10:00:00,61.8,75.8
2002-02-01 11:00:00,63.9,78.3
2002-02-01 12:00:00,64.2,78.2
2002-02-01 13:00:00,63.1,76.8
2002-02-01 14:00:00,61.2,75.3
2002-02-01 15:00:00,59.9,73.7
2002-02-01 16:00:00,54.7,69.8
2002-02-01 17:00:00,51.6,67.5
2002-02-01 18:00:00,55.4,71.2
2002-02-01 19:00:00,65.3,78.5
2002-02-01 20:00:00,58.1,70.3
2002-02-01 21:00:00,65.2,79.2
2002-02-01 22:00:00,73.6,84.4
2002-02-01 23:00:00,75.3,87.4
2002-02-02 00:00:00,76.1,86.0
2002-02-02 01:00:00,75.6,86.6
2002-02-02 02:00:00,76.6,85.9
2002-02-02 03:00:00,73.4,83.5
2002-02-02 04:00:00,73.6,84.6
2002-02-02 05:00:00,73.7,83.8
2002-02-02 06:00:00,73.5,84.3
2002-02-02 07:00:00,73.1,83.6
2002-02-02 08:00:00,71.8,80.6
2002-02-02 09:00:00,69.4,76.9
2002-02-02 10:00:00,70.0,79.4
2002-02-02 11:00:00,72.2,82.5
2002-02-02 12:00:00,72.8,84.9
2002-02-02 13:00:00,72.2,84.7
2002-02-02 14:00:00,72.0,84.4
2002-02-02 15:00:00,71.8,83.5
2002-02-02 16:00:00,72.3,85.1
2002-02-02 17:00:00,76.5,86.6
2002-02-02 18:00:00,77.8,89.9
2002-02-02 19:00:00,82.1,90.5
2002-02-02 20:00:00,79.4,89.0
2002-02-02 21:00:00,82.8,89.9
2002-02-02 22:00:00,82.3,90.8
2002-02-02 23:00:00,84.7,91.0
2002-02-03 00:00:00,76.8,87.0
2002-02-03 01:00:00,79.2,87.7
2002-02-03 02:00:00,85.2,92.1
2002-02-03 03:00:00,83.0,82.6
2002-02-03 04:00:00,67.9,77.1
2002-02-03 05:00:00,68.3,77.5
2002-02-03 06:00:00,68.8,78.6
2002-02-03 07:00:00,66.6,76.5